Total_Precipitation_Accumulation
0.01 0.02 0.02 0.02 0.01 0.01 0.03 0.03 0.03 0.04 0.05 0.05 0.06 0.08 0.06 0.04 0.03 0.03 0.03 0.05 0.11 0.12 0.09 0.12 0.23 0.31 0.19 0.02 0.02 0.00 0.01 0.04 0.12 0.10 0.01 0.00 0.00 0.00 0.00 0.00 0.00 0.00 0.00 0.00 0.00 0.00 0.00
0.02 0.02 0.02 0.01 0.01 0.03 0.05 0.04 0.05 0.05 0.05 0.06 0.07 0.07 0.05 0.03 0.07 0.04 0.02 0.03 0.06 0.12 0.15 0.13 0.32 0.52 0.23 0.01 0.00 0.00 0.05 0.04 0.09 0.12 0.03 0.00 0.00 0.00 0.00 0.00 0.00 0.00 0.00 0.00 0.00 0.00 0.00
0.03 0.02 0.02 0.01 0.03 0.05 0.04 0.06 0.06 0.05 0.07 0.06 0.09 0.05 0.03 0.03 0.07 0.07 0.02 0.01 0.06 0.11 0.13 0.21 0.35 0.49 0.15 0.01 0.00 0.00 0.04 0.12 0.09 0.12 0.07 0.03 0.00 0.00 0.00 0.00 0.00 0.00 0.00 0.00 0.00 0.00 0.00
0.02 0.02 0.01 0.01 0.05 0.05 0.05 0.06 0.06 0.08 0.07 0.08 0.10 0.05 0.04 0.05 0.04 0.06 0.01 0.01 0.04 0.12 0.20 0.26 0.45 0.47 0.13 0.01 0.00 0.00 0.01 0.08 0.08 0.17 0.20 0.14 0.03 0.00 0.00 0.00 0.00 0.00 0.00 0.00 0.00 0.00 0.00
0.02 0.02 0.01 0.03 0.06 0.05 0.07 0.08 0.09 0.07 0.07 0.11 0.10 0.06 0.04 0.05 0.03 0.05 0.03 0.02 0.01 0.18 0.32 0.34 0.52 0.32 0.09 0.01 0.00 0.00 0.00 0.02 0.05 0.18 0.46 0.18 0.10 0.03 0.00 0.00 0.00 0.00 0.00 0.00 0.00 0.00 0.00
0.02 0.02 0.01 0.04 0.06 0.06 0.08 0.09 0.08 0.07 0.08 0.12 0.10 0.06 0.06 0.07 0.08 0.15 0.12 0.01 0.01 0.20 0.54 0.84 0.64 0.41 0.04 0.00 0.00 0.00 0.00 0.01 0.07 0.20 0.35 0.31 0.23 0.10 0.02 0.01 0.00 0.00 0.00 0.00 0.00 0.00 0.00
0.02 0.02 0.01 0.05 0.06 0.07 0.09 0.07 0.08 0.08 0.09 0.11 0.08 0.05 0.10 0.15 0.11 0.23 0.10 0.01 0.15 0.48 0.64 0.75 0.48 0.16 0.00 0.00 0.00 0.01 0.00 0.01 0.11 0.19 0.17 0.25 0.23 0.15 0.06 0.00 0.00 0.00 0.00 0.00 0.00 0.00 0.00
0.01 0.01 0.03 0.06 0.07 0.07 0.07 0.08 0.08 0.07 0.09 0.10 0.06 0.05 0.13 0.13 0.14 0.19 0.05 0.03 0.17 0.50 0.53 0.39 0.26 0.08 0.00 0.00 0.00 0.01 0.00 0.03 0.08 0.05 0.11 0.15 0.17 0.09 0.07 0.02 0.00 0.00 0.00 0.00 0.00 0.00 0.00
0.01 0.01 0.04 0.06 0.07 0.07 0.07 0.07 0.08 0.07 0.09 0.06 0.04 0.07 0.14 0.16 0.16 0.09 0.01 0.01 0.17 0.46 0.58 0.46 0.47 0.18 0.00 0.00 0.00 0.00 0.00 0.01 0.04 0.02 0.04 0.09 0.07 0.04 0.09 0.05 0.01 0.00 0.00 0.00 0.00 0.00 0.00
0.01 0.01 0.05 0.07 0.07 0.06 0.07 0.06 0.07 0.10 0.04 0.03 0.03 0.08 0.18 0.30 0.26 0.12 0.03 0.05 0.26 0.58 0.57 0.60 0.63 0.22 0.01 0.00 0.00 0.00 0.00 0.01 0.02 0.02 0.03 0.05 0.01 0.05 0.03 0.06 0.00 0.00 0.00 0.00 0.00 0.00 0.00
0.01 0.02 0.05 0.07 0.06 0.06 0.06 0.06 0.08 0.07 0.02 0.02 0.05 0.11 0.23 0.48 0.41 0.10 0.09 0.10 0.45 0.70 0.57 0.47 0.48 0.17 0.01 0.00 0.00 0.02 0.02 0.00 0.00 0.00 0.01 0.01 0.00 0.02 0.03 0.00 0.00 0.00 0.00 0.00 0.00 0.00 0.00
0.01 0.03 0.05 0.06 0.05 0.05 0.05 0.05 0.05 0.04 0.03 0.04 0.05 0.10 0.24 0.23 0.15 0.04 0.12 0.27 0.50 0.74 0.79 0.76 0.41 0.09 0.04 0.01 0.00 0.01 0.01 0.00 0.00 0.01 0.00 0.00 0.00 0.00 0.00 0.00 0.00 0.00 0.00 0.00 0.00 0.00 0.00
0.00 0.03 0.04 0.06 0.04 0.05 0.03 0.04 0.04 0.03 0.04 0.03 0.05 0.10 0.19 0.21 0.08 0.03 0.10 0.30 0.43 0.59 0.57 0.40 0.21 0.04 0.02 0.02 0.01 0.02 0.02 0.00 0.00 0.01 0.04 0.01 0.00 0.00 0.00 0.00 0.00 0.00 0.00 0.00 0.00 0.01 0.00
0.00 0.03 0.05 0.06 0.04 0.04 0.03 0.04 0.03 0.03 0.02 0.02 0.03 0.06 0.08 0.11 0.10 0.07 0.06 0.18 0.29 0.46 0.37 0.18 0.03 0.02 0.01 0.02 0.02 0.02 0.01 0.01 0.00 0.00 0.01 0.01 0.00 0.00 0.00 0.00 0.00 0.00 0.00 0.00 0.00 0.00 0.00
0.01 0.03 0.05 0.05 0.04 0.03 0.02 0.03 0.02 0.03 0.03 0.03 0.04 0.04 0.16 0.12 0.11 0.03 0.08 0.13 0.68 0.46 0.22 0.07 0.05 0.03 0.03 0.01 0.02 0.03 0.01 0.00 0.00 0.00 0.00 0.00 0.00 0.00 0.00 0.00 0.00 0.00 0.00 0.00 0.00 0.00 0.00
0.01 0.03 0.05 0.04 0.04 0.02 0.02 0.03 0.01 0.04 0.06 0.05 0.04 0.03 0.14 0.15 0.04 0.05 0.09 0.34 0.57 0.13 0.01 0.00 0.07 0.03 0.02 0.01 0.01 0.01 0.01 0.00 0.00 0.00 0.00 0.00 0.00 0.00 0.00 0.00 0.00 0.00 0.00 0.00 0.00 0.00 0.00
0.01 0.02 0.03 0.03 0.02 0.02 0.01 0.01 0.01 0.03 0.06 0.06 0.02 0.09 0.08 0.04 0.02 0.06 0.17 0.52 0.30 0.03 0.00 0.00 0.00 0.00 0.00 0.01 0.00 0.00 0.00 0.00 0.00 0.00 0.00 0.00 0.00 0.00 0.00 0.00 0.00 0.00 0.00 0.00 0.00 0.00 0.00
0.01 0.01 0.03 0.02 0.02 0.01 0.01 0.01 0.00 0.04 0.08 0.05 0.01 0.11 0.04 0.02 0.02 0.08 0.25 0.55 0.29 0.05 0.01 0.00 0.00 0.00 0.00 0.00 0.00 0.00 0.00 0.00 0.00 0.00 0.00 0.00 0.00 0.00 0.00 0.00 0.00 0.00 0.00 0.00 0.01 0.00 0.00
0.01 0.01 0.02 0.01 0.02 0.01 0.01 0.00 0.00 0.02 0.08 0.02 0.00 0.03 0.13 0.08 0.02 0.18 0.39 0.25 0.15 0.05 0.02 0.00 0.00 0.00 0.00 0.00 0.00 0.00 0.00 0.00 0.00 0.00 0.00 0.00 0.00 0.00 0.00 0.00 0.00 0.00 0.00 0.00 0.00 0.06 0.06
0.01 0.01 0.01 0.01 0.02 0.00 0.01 0.00 0.00 0.00 0.03 0.00 0.01 0.01 0.01 0.01 0.05 0.14 0.16 0.09 0.04 0.02 0.01 0.00 0.00 0.00 0.00 0.00 0.00 0.00 0.00 0.00 0.00 0.00 0.00 0.00 0.00 0.00 0.00 0.00 0.00 0.00 0.00 0.00 0.04 0.19 0.05
0.01 0.01 0.01 0.01 0.02 0.00 0.00 0.00 0.00 0.00 0.00 0.00 0.00 0.01 0.01 0.00 0.03 0.07 0.11 0.06 0.01 0.00 0.00 0.00 0.00 0.00 0.00 0.00 0.00 0.00 0.00 0.00 0.00 0.00 0.00 0.00 0.00 0.00 0.00 0.00 0.00 0.00 0.00 0.00 0.06 0.07 0.16
0.01 0.00 0.00 0.00 0.01 0.00 0.00 0.00 0.00 0.00 0.00 0.00 0.00 0.00 0.00 0.00 0.00 0.00 0.01 0.02 0.00 0.00 0.00 0.00 0.00 0.00 0.00 0.00 0.00 0.00 0.00 0.00 0.00 0.00 0.00 0.00 0.00 0.00 0.00 0.00 0.00 0.00 0.00 0.01 0.01 0.01 0.02
0.01 0.00 0.00 0.00 0.01 0.01 0.00 0.00 0.00 0.00 0.00 0.00 0.00 0.00 0.00 0.00 0.00 0.00 0.00 0.00 0.00 0.00 0.00 0.00 0.00 0.00 0.00 0.00 0.00 0.00 0.00 0.00 0.00 0.00 0.00 0.00 0.00 0.01 0.01 0.00 0.00 0.00 0.00 0.00 0.00 0.00 0.00
0.01 0.01 0.00 0.00 0.00 0.00 0.00 0.00 0.00 0.00 0.01 0.00 0.01 0.01 0.00 0.00 0.00 0.00 0.00 0.00 0.00 0.00 0.00 0.00 0.00 0.00 0.01 0.00 0.00 0.00 0.00 0.00 0.00 0.00 0.00 0.00 0.01 0.05 0.01 0.00 0.00 0.00 0.00 0.00 0.00 0.00 0.00
0.01 0.01 0.01 0.00 0.00 0.00 0.00 0.00 0.00 0.00 0.00 0.00 0.00 0.00 0.01 0.00 0.00 0.00 0.00 0.00 0.00 0.00 0.00 0.00 0.00 0.00 0.00 0.00 0.00 0.00 0.01 0.01 0.00 0.00 0.00 0.00 0.02 0.07 0.04 0.02 0.00 0.00 0.00 0.00 0.00 0.00 0.00
0.01 0.01 0.01 0.00 0.00 0.00 0.00 0.00 0.00 0.00 0.00 0.00 0.01 0.00 0.00 0.01 0.00 0.00 0.00 0.00 0.00 0.00 0.00 0.00 0.00 0.00 0.00 0.00 0.00 0.00 0.00 0.00 0.01 0.00 0.00 0.01 0.02 0.10 0.07 0.05 0.00 0.01 0.00 0.00 0.00 0.00 0.00
0.02 0.01 0.02 0.01 0.00 0.00 0.00 0.00 0.00 0.00 0.00 0.00 0.01 0.00 0.00 0.00 0.00 0.00 0.00 0.00 0.00 0.00 0.00 0.00 0.00 0.00 0.00 0.00 0.01 0.00 0.00 0.00 0.00 0.00 0.01 0.02 0.04 0.06 0.08 0.06 0.00 0.00 0.00 0.00 0.00 0.00 0.00
0.01 0.01 0.01 0.01 0.01 0.01 0.01 0.00 0.00 0.00 0.00 0.00 0.00 0.01 0.00 0.00 0.00 0.00 0.00 0.00 0.00 0.00 0.01 0.00 0.00 0.00 0.00 0.00 0.00 0.00 0.00 0.00 0.00 0.00 0.00 0.00 0.01 0.02 0.02 0.02 0.00 0.00 0.00 0.00 0.00 0.00 0.00
0.02 0.02 0.01 0.02 0.02 0.01 0.01 0.01 0.01 0.01 0.00 0.00 0.00 0.00 0.01 0.02 0.00 0.00 0.00 0.00 0.00 0.00 0.00 0.00 0.01 0.00 0.00 0.00 0.00 0.01 0.01 0.00 0.00 0.00 0.00 0.00 0.00 0.00 0.00 0.00 0.00 0.00 0.00 0.00 0.00 0.00 0.00